When you browse on this site, cookies collect data to enhance your experience and personalize the content and advertising you see.
Visit our Privacy Policy to learn more. By continuing to use the site, you agree to this use of cookies and data.
  • In United Kingdom
  • List of Countries
  • For 7 days
  • Water Temperature
  • Satellite Maps
  • Weather Map
  • Weather Widgets
  • user-avatar
    Login

    Hourly Weather Kinshasa

    Today, 21 March, Thursday

    Time Temperature Precipitation Wind Pressure Humidity
    00:00 +27°C° 0 mm 1 mps 705 mmHg 61%
    01:00 +27°C° 0 mm 1 mps 705 mmHg 68%
    02:00 +26°C° 0 mm 1 mps 705 mmHg 70%
    03:00 +26°C° 0 mm 1 mps 705 mmHg 73%
    04:00 +26°C° 0 mm 2 mps 705 mmHg 76%
    05:00 +26°C° 0 mm 2 mps 706 mmHg 75%
    06:00 +26°C° 0 mm 2 mps 706 mmHg 75%
    07:00 +27°C° 0 mm 3 mps 706 mmHg 73%
    08:00 +29°C° 0 mm 3 mps 707 mmHg 63%
    09:00 +32°C° 0 mm 2 mps 707 mmHg 54%
    10:00 +36°C° 0 mm 2 mps 708 mmHg 45%
    11:00 +38°C° 0 mm 2 mps 707 mmHg 38%
    12:00 +41°C° 0 mm 1 mps 707 mmHg 31%
    13:00 +44°C° 0 mm 1 mps 706 mmHg 24%
    14:00 +42°C° 0 mm 1 mps 706 mmHg 27%
    15:00 +37°C° 0 mm 0 mps 705 mmHg 29%
    16:00 +35°C° 0 mm 0 mps 704 mmHg 32%
    17:00 +35°C° 0 mm 1 mps 704 mmHg 36%
    18:00 +33°C° 0 mm 1 mps 704 mmHg 39%
    19:00 +32°C° 0 mm 1 mps 704 mmHg 42%
    20:00 +32°C° 0 mm 1 mps 704 mmHg 43%
    21:00 +31°C° 0 mm 1 mps 705 mmHg 45%
    22:00 +31°C° 0 mm 1 mps 705 mmHg 46%
    23:00 +30°C° 0 mm 1 mps 705 mmHg 49%

    Tomorrow, 22 March, Friday

    Time Temperature Precipitation Wind Pressure Humidity
    00:00 +30°C° 0 mm 2 mps 705 mmHg 53%
    01:00 +29°C° 0 mm 2 mps 705 mmHg 57%
    02:00 +28°C° 0 mm 2 mps 705 mmHg 63%
    03:00 +28°C° 0 mm 3 mps 705 mmHg 68%
    04:00 +27°C° 0 mm 3 mps 704 mmHg 74%
    05:00 +27°C° 0 mm 3 mps 705 mmHg 74%
    06:00 +27°C° 0 mm 3 mps 705 mmHg 74%
    07:00 +27°C° 0 mm 3 mps 706 mmHg 74%
    08:00 +29°C° 0 mm 3 mps 706 mmHg 65%
    09:00 +33°C° 0 mm 3 mps 707 mmHg 55%
    10:00 +35°C° 0 mm 3 mps 708 mmHg 46%
    11:00 +37°C° 0 mm 2 mps 707 mmHg 39%
    12:00 +40°C° 0 mm 2 mps 706 mmHg 33%
    13:00 +42°C° 0 mm 1 mps 705 mmHg 27%
    14:00 +41°C° 0 mm 1 mps 705 mmHg 28%
    15:00 +39°C° 0 mm 2 mps 704 mmHg 30%
    16:00 +38°C° 0 mm 2 mps 703 mmHg 32%
    17:00 +36°C° 0.1 mm 2 mps 703 mmHg 37%
    18:00 +34°C° 0.1 mm 2 mps 703 mmHg 43%
    19:00 +31°C° 0.1 mm 2 mps 703 mmHg 48%
    20:00 +30°C° 0.7 mm 2 mps 704 mmHg 58%
    21:00 +28°C° 0.7 mm 2 mps 705 mmHg 67%
    22:00 +27°C° 0.7 mm 2 mps 706 mmHg 77%
    23:00 +26°C° 1.4 mm 3 mps 706 mmHg 80%

    Day after tomorrow, 23 March, Saturday

    Time Temperature Precipitation Wind Pressure Humidity
    00:00 +26°C° 1.4 mm 3 mps 706 mmHg 83%
    01:00 +25°C° 1.4 mm 3 mps 706 mmHg 86%
    02:00 +25°C° 0.3 mm 3 mps 706 mmHg 86%
    03:00 +24°C° 0.3 mm 3 mps 706 mmHg 87%
    04:00 +24°C° 0.3 mm 3 mps 705 mmHg 87%
    05:00 +24°C° 0.3 mm 3 mps 706 mmHg 87%
    06:00 +24°C° 0.3 mm 3 mps 706 mmHg 87%
    07:00 +24°C° 0.3 mm 2 mps 706 mmHg 88%
    08:00 +27°C° 0 mm 3 mps 707 mmHg 76%
    09:00 +29°C° 0 mm 3 mps 708 mmHg 65%
    10:00 +31°C° 0 mm 3 mps 709 mmHg 53%
    11:00 +34°C° 0 mm 3 mps 708 mmHg 47%
    12:00 +36°C° 0 mm 3 mps 707 mmHg 41%
    13:00 +38°C° 0 mm 3 mps 706 mmHg 35%
    14:00 +37°C° 0 mm 2 mps 706 mmHg 36%
    15:00 +37°C° 0 mm 2 mps 705 mmHg 37%
    16:00 +36°C° 0 mm 2 mps 704 mmHg 39%
    17:00 +35°C° 0 mm 2 mps 704 mmHg 44%
    18:00 +32°C° 0 mm 2 mps 704 mmHg 50%
    19:00 +30°C° 0 mm 2 mps 705 mmHg 55%
    20:00 +30°C° 0 mm 2 mps 705 mmHg 58%
    21:00 +29°C° 0 mm 2 mps 705 mmHg 61%
    22:00 +29°C° 0 mm 2 mps 706 mmHg 64%
    23:00 +28°C° 0 mm 2 mps 706 mmHg 66%

    24 March, Sunday

    Time Temperature Precipitation Wind Pressure Humidity
    00:00 +27°C° 0 mm 3 mps 706 mmHg 69%
    01:00 +27°C° 0 mm 3 mps 706 mmHg 72%
    02:00 +26°C° 0.3 mm 3 mps 706 mmHg 76%
    03:00 +26°C° 0.3 mm 2 mps 706 mmHg 80%
    04:00 +25°C° 0.3 mm 2 mps 706 mmHg 83%
    05:00 +25°C° 4.1 mm 2 mps 707 mmHg 87%
    06:00 +24°C° 4.1 mm 1 mps 707 mmHg 90%
    07:00 +24°C° 4.1 mm 1 mps 708 mmHg 94%
    08:00 +24°C° 2.2 mm 2 mps 708 mmHg 90%
    09:00 +25°C° 2.2 mm 3 mps 708 mmHg 86%
    10:00 +25°C° 2.2 mm 5 mps 709 mmHg 82%
    11:00 +27°C° 0 mm 4 mps 708 mmHg 75%
    12:00 +28°C° 0 mm 3 mps 707 mmHg 68%
    13:00 +29°C° 0 mm 2 mps 707 mmHg 61%
    14:00 +30°C° 0 mm 2 mps 706 mmHg 58%
    15:00 +30°C° 0 mm 2 mps 706 mmHg 55%
    16:00 +31°C° 0 mm 2 mps 705 mmHg 53%
    17:00 +29°C° 0 mm 2 mps 706 mmHg 59%
    18:00 +28°C° 0 mm 2 mps 706 mmHg 66%
    19:00 +26°C° 0 mm 2 mps 706 mmHg 72%
    20:00 +26°C° 0 mm 2 mps 706 mmHg 74%
    21:00 +25°C° 0 mm 2 mps 706 mmHg 76%
    22:00 +25°C° 0 mm 2 mps 706 mmHg 78%
    23:00 +24°C° 0 mm 1 mps 706 mmHg 78%

    25 March, Monday

    Time Temperature Precipitation Wind Pressure Humidity
    00:00 +24°C° 0 mm 1 mps 705 mmHg 79%
    01:00 +23°C° 0 mm 1 mps 705 mmHg 80%
    02:00 +23°C° 0 mm 1 mps 705 mmHg 82%
    03:00 +23°C° 0 mm 1 mps 705 mmHg 83%
    04:00 +23°C° 0 mm 1 mps 705 mmHg 84%
    05:00 +23°C° 0.3 mm 1 mps 706 mmHg 85%
    06:00 +23°C° 0.3 mm 1 mps 707 mmHg 85%
    07:00 +22°C° 0.3 mm 0 mps 708 mmHg 85%
    08:00 +25°C° 0.6 mm 1 mps 708 mmHg 80%
    09:00 +27°C° 0.6 mm 1 mps 709 mmHg 75%
    10:00 +29°C° 0.6 mm 2 mps 709 mmHg 70%
    11:00 +31°C° 0 mm 2 mps 708 mmHg 61%
    12:00 +34°C° 0 mm 2 mps 707 mmHg 53%
    13:00 +36°C° 0 mm 2 mps 707 mmHg 44%
    14:00 +35°C° 0 mm 2 mps 706 mmHg 44%
    15:00 +35°C° 0 mm 2 mps 706 mmHg 45%
    16:00 +33°C° 0 mm 1 mps 705 mmHg 46%
    17:00 +32°C° 0 mm 1 mps 705 mmHg 51%
    18:00 +30°C° 0 mm 1 mps 705 mmHg 57%
    19:00 +28°C° 0 mm 1 mps 705 mmHg 63%
    20:00 +28°C° 0 mm 1 mps 705 mmHg 65%
    21:00 +27°C° 0 mm 1 mps 706 mmHg 68%
    22:00 +26°C° 0 mm 1 mps 706 mmHg 71%
    23:00 +26°C° 0 mm 1 mps 706 mmHg 72%

    26 March, Tuesday

    Time Temperature Precipitation Wind Pressure Humidity
    00:00 +25°C° 0 mm 1 mps 705 mmHg 74%
    01:00 +25°C° 0 mm 1 mps 705 mmHg 76%
    02:00 +24°C° 0.8 mm 1 mps 705 mmHg 80%
    03:00 +24°C° 0.8 mm 1 mps 705 mmHg 85%
    04:00 +23°C° 0.8 mm 1 mps 705 mmHg 89%
    05:00 +23°C° 0.3 mm 1 mps 706 mmHg 89%
    06:00 +24°C° 0.3 mm 1 mps 706 mmHg 89%
    07:00 +24°C° 0.3 mm 1 mps 707 mmHg 89%
    08:00 +27°C° 0.3 mm 2 mps 708 mmHg 78%
    09:00 +29°C° 0.3 mm 2 mps 708 mmHg 68%
    10:00 +32°C° 0.3 mm 2 mps 709 mmHg 57%
    11:00 +34°C° 0.2 mm 2 mps 708 mmHg 51%
    12:00 +36°C° 0.2 mm 2 mps 708 mmHg 46%
    13:00 +36°C° 0.2 mm 1 mps 707 mmHg 41%
    14:00 +36°C° 0 mm 2 mps 707 mmHg 45%
    15:00 +35°C° 0 mm 2 mps 707 mmHg 49%
    16:00 +33°C° 0 mm 3 mps 706 mmHg 54%
    17:00 +30°C° 0.2 mm 3 mps 706 mmHg 65%
    18:00 +28°C° 0.2 mm 2 mps 706 mmHg 75%
    19:00 +25°C° 0.2 mm 2 mps 706 mmHg 86%
    20:00 +25°C° 0 mm 2 mps 706 mmHg 87%
    21:00 +25°C° 0 mm 1 mps 706 mmHg 87%
    22:00 +23°C° 0 mm 0 mps 706 mmHg 88%
    23:00 +22°C° 0 mm 0 mps 706 mmHg 88%
    Show more